Regional Weather Roundup
Issued by NWS

Home | Current Version | Previous Version | Graphics & Text | Print | Product List | Glossary On
Versions: 1 2 3 4 5 6 7 8 9 10 11 12 13 14 15 16 17 18 19 20 21 22 23 24 25 26 27 28 29 30 31 32 33 34 35 36 37 38 39 40 41 42 43 44 45 46 47 48 49 50
000
ASUS43 KBIS 280002
RWRND

NORTH DAKOTA REGIONAL WEATHER ROUNDUP
NATIONAL WEATHER SERVICE BISMARCK ND
700 PM CDT WED APR 27 2016

NOTE: "FAIR" INDICATES FEW OR NO CLOUDS BELOW 12,000 FEET WITH NO
SIGNIFICANT WEATHER AND/OR OBSTRUCTIONS TO VISIBILITY.


NDZ001>003-009>011-017-280100-
NORTHWEST NORTH DAKOTA

CITY           SKY/WX    TMP DP  RH WIND       PRES   REMARKS
WILLISTON      CLOUDY    52  25  35 NE9       30.01S
6HR MIN TEMP:  47; 6HR MAX TEMP:  52;

MINOT          CLOUDY    57  22  25 NE16G23   29.99R
MINOT AFB      CLOUDY    54  23  29 E17G23    29.98R
$$

NDZ018>021-031>035-040>046-280100-
SOUTHWEST NORTH DAKOTA

CITY           SKY/WX    TMP DP  RH WIND       PRES   REMARKS
BISMARCK       CLOUDY    49  29  46 NE10      29.93R
6HR MIN TEMP:  44; 6HR MAX TEMP:  49;

DICKINSON      CLOUDY    38  30  73 NE12      29.93R
GARRISON         N/A     50  23  34 E12G22    29.96R
6HR MIN TEMP:  44; 6HR MAX TEMP:  52;

HETTINGER ARPT LGT SNOW  34  31  88 E18       29.94R FOG
$$

NDZ004>008-012>016-024-026-027-054-280100-
NORTHEAST NORTH DAKOTA

CITY           SKY/WX    TMP DP  RH WIND       PRES   REMARKS
GRAND FORKS    CLOUDY    54  29  38 NE20      29.97R
GRND FRKS AFB  CLOUDY    54  27  34 NE18G24   29.97R
DEVILS LAKE    MOSUNNY   53  25  33 E16G24    29.98R
$$

NDZ022-023-025-028>030-036>039-047>053-280100-
SOUTHEAST NORTH DAKOTA

CITY           SKY/WX    TMP DP  RH WIND       PRES   REMARKS
FARGO          CLOUDY    56  25  30 E14       29.90R
6HR MIN TEMP:  54; 6HR MAX TEMP:  57;

JAMESTOWN      CLOUDY    50  29  44 NE21      29.89S
$$





USA.gov is the U.S. government's official web portal to all federal, state and local government web resources and services.